Weather in Nekrasovo

Russia / Sverdlovsk Oblast     56°40′20″N   61°39′05″E
temp.,
°C
wind,
m/s
gust,
m/s
humid.,
%
clouds,
%
prec.,
mm/h
press.,
hPa
HPBL,
m
13 may, thu
thu1323:00+16ese015139 0.0 102711
02:00+14wsw335885 0.0 102735
05:00+13wnw3465100 0.0 102745
08:00+18nw355169 0.0 1027259
11:00+23nw46345 0.0 10261513
14:00+26nnw56305 0.0 10252118
17:00+27nnw452831 0.0 10252406
20:00+23nnw22405 0.0 102517
14 may, fri
fri1423:00+19nnw12455 0.0 102511
02:00+17w225322 0.0 102613
05:00+15wsw22615 0.0 102612
08:00+21wsw34460 0.0 1026235
11:00+26wsw45321 0.0 10251775
14:00+29w47266 0.0 10233125
17:00+29w572343 0.0 10223360
20:00+24w37372 0.0 1022123
15 may, sat
sat1523:00+19w49435 0.0 1022132
02:00+17wsw385742 0.0 1022122
05:00+17w4126367 0.0 1022220
08:00+22w5104992 0.0 1022401
11:00+27w693211 0.0 10211280
14:00+28w7926100 0.0 10202353
17:00+29w7102538 0.0 10192627
20:00+24wnw48405 0.0 1019159
16 may, sun
sun1623:00+20wnw4115198 0.0 1019240
02:00+18w4125986 0.0 1019213
05:00+16w38685 0.2 1020149
08:00+22w58475 0.0 1020311
11:00+28w572719 0.0 10191441
14:00+30w57215 0.0 10182736
17:00+30w67205 0.0 10173570
20:00+25w33355 0.0 101736
17 may, mon
mon1723:00+20w49480 0.0 1017138
02:00+18wsw4956100 0.0 1017139
05:00+17wsw49620 0.0 1017142
08:00+23wsw6124599 0.0 1016555
11:00+28wsw8132554 0.0 10152909
14:00+29w9112344 0.0 10133632
17:00+29w61127100 0.0 10123527
20:00+24w612406 0.0 1012553